Weather History for Allentown, PA

Change the Weather History Date:

Thursday, August 29, 2013

  Actual Average (KABE) Record (KABE)
Temperature  
Mean Temperature 76 °F 70 °F  
Max Temperature 82 °F 81 °F 97 °F (1953)
Min Temperature 69 °F 59 °F 43 °F (1982)
Degree Days  
Heating Degree Days 0 1  
Month to date heating degree days 2  
Since 1 June heating degree days 38  
Since 1 July heating degree days 5  
Cooling Degree Days 10 5  
Month to date cooling degree days 204  
Year to date cooling degree days 669  
Since 1 June cooling degree days 624  
Growing Degree Days 26 (Base 50)    
Moisture  
Dew Point 67 °F    
Average Humidity 82    
Maximum Humidity 94    
Minimum Humidity 51    
Precipitation  
Precipitation 1.31 in 0.10 in 1.26 in (2013)
Month to date precipitation 3.48  
Year to date precipitation 29.56  
Snow  
Snow 0.00 in 0.00 in 0.00 in (2002)
Month to date snowfall 0.0  
Since 1 June snowfall 0.0  
Since 1 July snowfall 0.0  
Snow Depth -    
Sea Level Pressure  
Sea Level Pressure 29.99 in    
Wind  
Wind Speed 5 mph (ENE)    
Max Wind Speed 15 mph    
Max Gust Speed -    
Visibility 6 miles    
Events Fog , Rain , Thunderstorm    
T = Trace of Precipitation, MM = Missing Value Source: NWS Daily Summary

Daily Weather History Graph

Daily Weather History Graph

Search for Another Location

Airport:

Trip Planner

Search our weather history database for the weather conditions in past years. The results will help you decide how hot, cold, wet, or windy it might be!

Date:

Astronomy

Aug. 29, 2013 Rise Set
Actual Time 6:26 AM EDT 7:38 PM EDT
Civil Twilight 5:58 AM EDT 8:06 PM EDT
Nautical Twilight 5:24 AM EDT 8:40 PM EDT
Astronomical Twilight 4:49 AM EDT 9:15 PM EDT
Moon 12:15 AM EDT (8/29) 3:06 PM EDT (8/29)
Length of Visible Light 14h 08m
Length of Day
13h 12m
Last Quarter, 38% of the Moon is Illuminated
Aug 29
Last Quarter
Sep 5
New
Sep 12
First Quarter
Sep 19
Full
Sep 26
Last Quarter

Hourly Weather History & Observations

Time (EDT) Temp. Heat Index Dew Point Humidity Pressure Visibility Wind Dir Wind Speed Gust Speed Precip Events Conditions
12:15 AM 69.8 °F - 66.2 °F 88% 29.92 in 3.0 mi NNE 5.8 mph - N/A   Scattered Clouds
12:35 AM 69.8 °F - 68.0 °F 94% 29.91 in 2.5 mi NNE 4.6 mph - N/A   Mostly Cloudy
12:55 AM 69.8 °F - 68.0 °F 94% 29.92 in 0.5 mi NE 3.5 mph - N/A Fog Fog
1:15 AM 69.8 °F - 68.0 °F 94% 29.92 in 0.2 mi NE 4.6 mph - N/A Fog Fog
1:35 AM 69.8 °F - 68.0 °F 94% 29.92 in 1.0 mi NNE 4.6 mph - N/A   Overcast
1:55 AM 69.8 °F - 68.0 °F 94% 29.92 in 1.2 mi NNE 4.6 mph - N/A   Overcast
2:15 AM 69.8 °F - 68.0 °F 94% 29.92 in 1.5 mi NNE 4.6 mph - N/A   Overcast
2:35 AM 69.8 °F - 68.0 °F 94% 29.92 in 2.0 mi NE 5.8 mph - N/A   Overcast
2:55 AM 69.8 °F - 68.0 °F 94% 29.93 in 2.0 mi NNE 5.8 mph - N/A   Overcast
3:15 AM 69.8 °F - 68.0 °F 94% 29.93 in 1.5 mi NE 5.8 mph - N/A   Overcast
3:35 AM 69.8 °F - 68.0 °F 94% 29.93 in 3.0 mi North 3.5 mph - N/A   Overcast
3:55 AM 69.8 °F - 68.0 °F 94% 29.93 in 3.0 mi NNE 5.8 mph - N/A   Overcast
4:15 AM 69.8 °F - 68.0 °F 94% 29.94 in 3.0 mi NNE 8.1 mph - N/A   Overcast
4:35 AM 69.8 °F - 68.0 °F 94% 29.94 in 3.0 mi NE 5.8 mph - N/A   Overcast
4:55 AM 69.8 °F - 68.0 °F 94% 29.94 in 2.5 mi NNE 4.6 mph - N/A   Overcast
5:15 AM 69.8 °F - 68.0 °F 94% 29.95 in 2.5 mi NNE 4.6 mph - N/A   Overcast
5:35 AM 69.8 °F - 68.0 °F 94% 29.95 in 3.0 mi NNE 5.8 mph - N/A   Overcast
5:55 AM 69.8 °F - 68.0 °F 94% 29.95 in 4.0 mi NE 4.6 mph - N/A   Overcast
6:15 AM 69.8 °F - 68.0 °F 94% 29.96 in 3.0 mi North 4.6 mph - N/A   Overcast
6:35 AM 69.8 °F - 68.0 °F 94% 29.97 in 2.0 mi NNE 4.6 mph - N/A   Overcast
6:55 AM 69.8 °F - 68.0 °F 94% 29.98 in 2.5 mi NE 5.8 mph - N/A   Overcast
7:15 AM 69.8 °F - 68.0 °F 94% 29.99 in 2.5 mi NNE 6.9 mph - N/A   Overcast
7:35 AM 69.8 °F - 66.2 °F 88% 29.99 in 2.5 mi NE 8.1 mph - N/A   Overcast
7:55 AM 69.8 °F - 66.2 °F 88% 29.99 in 3.0 mi ENE 6.9 mph - N/A   Overcast
8:15 AM 69.8 °F - 66.2 °F 88% 30.00 in 3.0 mi NE 8.1 mph - N/A   Overcast
8:35 AM 69.8 °F - 66.2 °F 88% 30.00 in 2.5 mi NE 5.8 mph - N/A   Overcast
8:55 AM 69.8 °F - 66.2 °F 88% 30.01 in 2.5 mi NNE 3.5 mph - N/A   Overcast
9:15 AM 69.8 °F - 66.2 °F 88% 30.02 in 3.0 mi NE 6.9 mph - N/A   Overcast
9:35 AM 69.8 °F - 66.2 °F 88% 30.02 in 4.0 mi NE 5.8 mph - N/A   Overcast
9:55 AM 69.8 °F - 66.2 °F 88% 30.02 in 4.0 mi NE 6.9 mph - N/A   Overcast
10:15 AM 71.6 °F - 68.0 °F 88% 30.03 in 5.0 mi NNE 3.5 mph - N/A   Overcast
10:35 AM 71.6 °F - 68.0 °F 88% 30.03 in 5.0 mi NNE 4.6 mph - N/A   Overcast
10:55 AM 71.6 °F - 68.0 °F 88% 30.03 in 5.0 mi NE 3.5 mph - N/A   Haze
11:15 AM 71.6 °F - 68.0 °F 88% 30.04 in 5.0 mi North 4.6 mph - N/A   Haze
11:35 AM 73.4 °F - 68.0 °F 83% 30.04 in 7.0 mi NNE 3.5 mph - N/A   Overcast
11:55 AM 73.4 °F - 68.0 °F 83% 30.04 in 7.0 mi Calm Calm - N/A   Mostly Cloudy
12:15 PM 75.2 °F - 68.0 °F 78% 30.04 in 7.0 mi Calm Calm - N/A   Mostly Cloudy
12:35 PM 77.0 °F - 68.0 °F 74% 30.04 in 7.0 mi Calm Calm - N/A   Overcast
12:55 PM 77.0 °F - 68.0 °F 74% 30.04 in 7.0 mi Calm Calm - N/A   Overcast
1:15 PM 77.0 °F - 66.2 °F 69% 30.03 in 7.0 mi Calm Calm - N/A   Mostly Cloudy
1:35 PM 77.0 °F - 68.0 °F 74% 30.03 in 7.0 mi Calm Calm - N/A   Overcast
1:55 PM 78.8 °F - 66.2 °F 65% 30.03 in 10.0 mi WNW 3.5 mph - N/A   Mostly Cloudy
2:15 PM - - - N/A% - - North - - N/A   Unknown
2:35 PM - - - N/A% - - North - - N/A   Unknown
2:55 PM 80.6 °F 82.7 °F 66.2 °F 61% 30.01 in - Calm Calm - 0.04 in   Mostly Cloudy
3:15 PM 80.6 °F 82.3 °F 64.4 °F 58% 30.01 in 10.0 mi ENE 3.5 mph - N/A   Mostly Cloudy
3:35 PM 80.6 °F 82.3 °F 64.4 °F 58% 30.01 in 10.0 mi NE 3.5 mph - N/A   Mostly Cloudy
3:55 PM 82.4 °F 83.4 °F 62.6 °F 51% 30.01 in 10.0 mi Calm Calm - N/A   Mostly Cloudy
4:15 PM 80.6 °F 82.3 °F 64.4 °F 58% 30.00 in 10.0 mi Calm Calm - N/A   Mostly Cloudy
4:35 PM 80.6 °F 83.2 °F 68.0 °F 65% 30.00 in 10.0 mi SE 9.2 mph - N/A   Mostly Cloudy
4:55 PM 80.6 °F 83.2 °F 68.0 °F 65% 30.00 in 10.0 mi ESE 5.8 mph - N/A   Scattered Clouds
5:15 PM 80.6 °F 83.2 °F 68.0 °F 65% 30.00 in 10.0 mi ESE 3.5 mph - N/A   Clear
5:35 PM 80.6 °F 82.7 °F 66.2 °F 61% 30.00 in 10.0 mi South 5.8 mph - N/A   Clear
5:55 PM 80.6 °F 82.7 °F 66.2 °F 61% 30.00 in 10.0 mi SE 4.6 mph - N/A   Scattered Clouds
6:15 PM 80.6 °F 83.2 °F 68.0 °F 65% 30.00 in 10.0 mi East 5.8 mph - N/A   Clear
6:35 PM 78.8 °F - 66.2 °F 65% 30.01 in 10.0 mi SSE 4.6 mph - N/A   Clear
6:55 PM 78.8 °F - 66.2 °F 65% 30.01 in 10.0 mi SE 3.5 mph - N/A   Clear
7:15 PM 78.8 °F - 66.2 °F 65% 30.01 in 10.0 mi SE 5.8 mph - N/A   Scattered Clouds
7:35 PM 77.0 °F - 68.0 °F 74% 30.02 in 10.0 mi SSE 3.5 mph - N/A   Clear
7:55 PM 75.2 °F - 68.0 °F 78% 30.01 in 10.0 mi SE 4.6 mph - N/A   Scattered Clouds
8:15 PM 75.2 °F - 68.0 °F 78% 30.02 in 10.0 mi SSE 4.6 mph - N/A   Scattered Clouds
8:35 PM 75.2 °F - 68.0 °F 78% 30.02 in 7.0 mi South 3.5 mph - N/A   Mostly Cloudy
8:55 PM 75.2 °F - 68.0 °F 78% 30.02 in 10.0 mi South 4.6 mph - N/A Thunderstorm Mostly Cloudy
9:15 PM 75.2 °F - 68.0 °F 78% 30.02 in 10.0 mi SSW 5.8 mph - N/A   Mostly Cloudy
9:35 PM 75.2 °F - 66.2 °F 73% 30.02 in 10.0 mi South 6.9 mph - N/A Thunderstorm Overcast
9:55 PM 73.4 °F - 66.2 °F 78% 30.02 in 10.0 mi East 6.9 mph - N/A Rain Rain
10:15 PM 71.6 °F - 68.0 °F 88% 30.04 in 1.2 mi ENE 15.0 mph - 0.37 in Rain , Thunderstorm Light Thunderstorms and Rain
10:35 PM 71.6 °F - 68.0 °F 88% 30.04 in 1.0 mi SSE 3.5 mph - 0.99 in Rain , Thunderstorm Heavy Thunderstorms and Rain
10:55 PM 69.8 °F - 68.0 °F 94% 30.04 in 1.8 mi South 4.6 mph - 1.24 in Rain , Thunderstorm Heavy Thunderstorms and Rain
11:15 PM 69.8 °F - 66.2 °F 88% 30.03 in 7.0 mi South 9.2 mph - 0.03 in Rain , Thunderstorm Light Thunderstorms and Rain
11:35 PM 69.8 °F - 66.2 °F 88% 30.03 in 10.0 mi South 5.8 mph - 0.03 in Rain Light Rain
11:55 PM 69.8 °F - 64.4 °F 83% 30.04 in 10.0 mi South 3.5 mph - 0.03 in   Scattered Clouds